Weather History for KFDY - March, 2014

Change the Weather History Date:

Sunday, March 30, 2014

  Actual Average (KTOL) Record (KTOL)
Temperature  
Mean Temperature 39 °F 43 °F  
Max Temperature 51 °F 53 °F 81 °F (1998)
Min Temperature 27 °F 33 °F 12 °F (1969)
Degree Days  
Heating Degree Days 26 22  
Month to date heating degree days 828  
Since 1 July heating degree days 5404  
Cooling Degree Days 0 0  
Month to date cooling degree days 0  
Year to date cooling degree days 0  
Moisture  
Dew Point 25 °F    
Average Humidity 64    
Maximum Humidity 85    
Minimum Humidity 33    
Precipitation  
Precipitation 0.00 in 0.09 in - ()
Month to date precipitation 2.38  
Year to date precipitation 6.50  
Snow  
Snow 0.00 in 0.10 in - ()
Month to date snowfall 5.6  
Since 1 July snowfall 36.1  
Snow Depth -    
Sea Level Pressure  
Sea Level Pressure 30.15 in    
Wind  
Wind Speed 11 mph (NW)    
Max Wind Speed 15 mph    
Max Gust Speed 18 mph    
Visibility 10 miles    
Events      
T = Trace of Precipitation, MM = Missing Value Source: NWS Daily Summary

Daily Weather History Graph

Daily Weather History Graph

Search for Another Location

Airport or City:

Trip Planner

Search our weather history database for the weather conditions in past years. The results will help you decide how hot, cold, wet, or windy it might be!

Date:

Astronomy

Mar. 30, 2014 Rise Set
Actual Time 7:21 AM EDT 7:57 PM EDT
Civil Twilight 6:53 AM EDT 8:25 PM EDT
Nautical Twilight 6:21 AM EDT 8:57 PM EDT
Astronomical Twilight 5:47 AM EDT 9:31 PM EDT
Moon 7:06 AM EDT (3/30) 8:09 PM EDT (3/30)
Length of Visible Light 13h 31m
Length of Day
12h 36m
Waning Crescent, 0% of the Moon is Illuminated
Mar 30
Waning Crescent
Mar 30
New
Apr 7
First Quarter
Apr 15
Full
Apr 22
Last Quarter

Hourly Weather History & Observations

Time (EDT) Temp. Windchill Dew Point Humidity Pressure Visibility Wind Dir Wind Speed Gust Speed Precip Events Conditions
12:53 AM 32.0 °F 21.6 °F 26.1 °F 79% 30.12 in 10.0 mi NNW 15.0 mph - N/A   Overcast
1:53 AM 32.0 °F 24.2 °F 26.1 °F 79% 30.13 in 10.0 mi NNW 9.2 mph - N/A   Overcast
2:53 AM 32.0 °F 23.0 °F 26.1 °F 79% 30.13 in 10.0 mi NNW 11.5 mph - N/A   Overcast
3:53 AM 32.0 °F 22.1 °F 26.1 °F 79% 30.13 in 10.0 mi NNW 13.8 mph - N/A   Overcast
4:39 AM 30.0 °F 21.1 °F 25.0 °F 82% 30.12 in 10.0 mi NNW 10.4 mph - N/A   Scattered Clouds
4:53 AM 28.9 °F 19.8 °F 24.1 °F 82% 30.14 in 10.0 mi NNW 10.4 mph - N/A   Clear
5:53 AM 28.0 °F 20.8 °F 24.1 °F 85% 30.14 in 10.0 mi NNW 6.9 mph - N/A   Clear
6:53 AM 27.0 °F 17.3 °F 23.0 °F 85% 30.17 in 9.0 mi NW 10.4 mph - N/A   Clear
7:53 AM 27.0 °F 17.3 °F 23.0 °F 85% 30.19 in 9.0 mi NW 10.4 mph - N/A   Clear
8:53 AM 30.0 °F 20.5 °F 24.1 °F 79% 30.19 in 10.0 mi NNW 11.5 mph - N/A   Clear
9:53 AM 32.0 °F 22.1 °F 24.1 °F 73% 30.19 in 10.0 mi North 13.8 mph - N/A   Clear
10:53 AM 36.0 °F 29.0 °F 24.1 °F 62% 30.19 in 10.0 mi North 9.2 mph - N/A   Clear
11:53 AM 39.9 °F 32.5 °F 24.1 °F 53% 30.20 in 10.0 mi North 12.7 mph - N/A   Clear
12:53 PM 41.0 °F 34.7 °F 25.0 °F 53% 30.19 in 10.0 mi NW 10.4 mph - N/A   Clear
1:53 PM 45.0 °F 40.1 °F 24.1 °F 44% 30.17 in 10.0 mi NW 9.2 mph - N/A   Clear
2:53 PM 46.9 °F - 26.1 °F 44% 30.16 in 10.0 mi NW 10.4 mph - N/A   Clear
3:53 PM 50.0 °F - 24.1 °F 36% 30.14 in 10.0 mi WNW 12.7 mph 18.4 mph N/A   Clear
4:53 PM 50.0 °F - 24.1 °F 36% 30.12 in 10.0 mi West 11.5 mph - N/A   Clear
5:53 PM 51.1 °F - 23.0 °F 33% 30.11 in 10.0 mi NW 13.8 mph - N/A   Clear
6:53 PM 50.0 °F - 23.0 °F 35% 30.11 in 10.0 mi NNW 8.1 mph - N/A   Clear
7:53 PM 46.9 °F - 24.1 °F 41% 30.12 in 10.0 mi NW 4.6 mph - N/A   Clear
8:53 PM 43.0 °F - 28.0 °F 56% 30.13 in 10.0 mi Calm Calm - N/A   Clear
9:53 PM 41.0 °F 39.0 °F 28.0 °F 60% 30.14 in 10.0 mi West 3.5 mph - N/A   Clear
10:53 PM 37.9 °F - 28.0 °F 68% 30.14 in 10.0 mi Calm Calm - N/A   Clear
11:53 PM 32.0 °F 26.4 °F 27.0 °F 82% 30.14 in 10.0 mi South 5.8 mph - N/A   Clear